Weather History for Alexandria, MN

Change the Weather History Date:

Sunday, December 23, 2012

  Actual Average Record
Temperature  
Mean Temperature 10 °F -  
Max Temperature 14 °F 17 °F 39 °F (1999)
Min Temperature 7 °F 0 °F -32 °F (1983)
Degree Days  
Heating Degree Days 54    
Moisture  
Dew Point 5 °F    
Average Humidity 78    
Maximum Humidity 87    
Minimum Humidity 67    
Precipitation  
Precipitation 0.00 in - - ()
Sea Level Pressure  
Sea Level Pressure 30.16 in    
Wind  
Wind Speed 9 mph (NE)    
Max Wind Speed 14 mph    
Max Gust Speed -    
Visibility 10 miles    
Events Snow    
Averages and records for this station are not official NWS values.
T = Trace of Precipitation, MM = Missing Value Source: NWS Daily Summary

Daily Weather History Graph

Daily Weather History Graph

Search for Another Location

Airport:

Trip Planner

Search our weather history database for the weather conditions in past years. The results will help you decide how hot, cold, wet, or windy it might be!

Date:

Astronomy

Dec. 23, 2012 Rise Set
Actual Time 8:01 AM CST 4:40 PM CST
Civil Twilight 7:26 AM CST 5:15 PM CST
Nautical Twilight 6:48 AM CST 5:53 PM CST
Astronomical Twilight 6:12 AM CST 6:29 PM CST
Moon 1:38 PM CST (12/23) 3:37 AM CST (12/23)
Length of Visible Light 9h 48m
Length of Day
8h 39m
Waxing Gibbous, 82% of the Moon is Illuminated
Dec 23
Waxing Gibbous
Dec 28
Full
Jan 4
Last Quarter
Jan 11
New
Jan 18
First Quarter

Hourly Weather History & Observations

Time (CST) Temp. Windchill Dew Point Humidity Pressure Visibility Wind Dir Wind Speed Gust Speed Precip Events Conditions
12:53 AM 10.0 °F -5.9 °F 6.1 °F 84% 30.17 in 10.0 mi NNE 13.8 mph - N/A   Overcast
1:53 AM 10.0 °F -2.9 °F 6.1 °F 84% 30.17 in 6.0 mi NNE 9.2 mph - 0.00 in Snow Light Snow
2:29 AM 8.6 °F -4.7 °F 5.0 °F 85% 30.09 in 10.0 mi NNE 9.2 mph - 0.00 in   Partly Cloudy
2:53 AM 9.0 °F -3.2 °F 5.0 °F 84% 30.19 in 10.0 mi NNE 8.1 mph - 0.00 in   Clear
3:19 AM 8.6 °F -4.7 °F 5.0 °F 85% 30.10 in 8.0 mi NNE 9.2 mph - N/A   Partly Cloudy
3:53 AM 8.1 °F -4.3 °F 5.0 °F 87% 30.19 in 10.0 mi NNE 8.1 mph - N/A   Scattered Clouds
4:53 AM 8.1 °F -5.3 °F 3.9 °F 83% 30.18 in 10.0 mi NE 9.2 mph - N/A   Clear
5:53 AM 7.0 °F -5.7 °F 3.9 °F 87% 30.20 in 10.0 mi NNE 8.1 mph - N/A   Clear
6:53 AM 8.1 °F -4.3 °F 3.9 °F 83% 30.21 in 10.0 mi NNE 8.1 mph - N/A   Clear
7:53 AM 8.1 °F -3.2 °F 5.0 °F 87% 30.21 in 10.0 mi NE 6.9 mph - N/A   Partly Cloudy
8:53 AM 9.0 °F -4.2 °F 5.0 °F 84% 30.21 in 10.0 mi NE 9.2 mph - N/A   Overcast
9:53 AM 10.0 °F -3.7 °F 5.0 °F 80% 30.20 in 10.0 mi East 10.4 mph - N/A   Clear
10:53 AM 10.0 °F -4.5 °F 5.0 °F 80% 30.20 in 10.0 mi ENE 11.5 mph - N/A   Clear
11:53 AM 10.9 °F 0.2 °F 5.0 °F 77% 30.19 in 10.0 mi East 6.9 mph - N/A   Clear
12:53 PM 12.9 °F 0.7 °F 6.1 °F 74% 30.16 in 10.0 mi East 9.2 mph - N/A   Clear
1:53 PM 14.0 °F 2.0 °F 6.1 °F 71% 30.14 in 10.0 mi East 9.2 mph - N/A   Clear
2:53 PM 14.0 °F 6.5 °F 6.1 °F 71% 30.16 in 10.0 mi NE 4.6 mph - N/A   Clear
3:53 PM 14.0 °F 2.9 °F 5.0 °F 67% 30.18 in 10.0 mi ENE 8.1 mph - N/A   Mostly Cloudy
4:53 PM 14.0 °F 5.1 °F 5.0 °F 67% 30.19 in 10.0 mi North 5.8 mph - N/A   Overcast
5:53 PM 14.0 °F 5.1 °F 6.1 °F 71% 30.17 in 10.0 mi NNE 5.8 mph - N/A   Overcast
6:53 PM 14.0 °F 2.9 °F 6.1 °F 71% 30.15 in 10.0 mi NE 8.1 mph - N/A   Overcast
7:53 PM 14.0 °F 3.9 °F 6.1 °F 71% 30.14 in 10.0 mi NE 6.9 mph - N/A   Overcast
8:53 PM 12.9 °F -1.6 °F 7.0 °F 77% 30.12 in 10.0 mi ENE 12.7 mph - N/A   Overcast
9:53 PM 12.9 °F 1.6 °F 7.0 °F 77% 30.12 in 10.0 mi NE 8.1 mph - N/A   Overcast
10:53 PM 12.9 °F -0.2 °F 7.0 °F 77% 30.12 in 10.0 mi NE 10.4 mph - N/A   Overcast
11:53 PM 12.0 °F 2.7 °F 6.1 °F 77% 30.12 in 10.0 mi NE 5.8 mph - N/A   Overcast